Flag for Germany Weather past 2 weeks in Königswinter, North Rhine-Westphalia, Germany

Now
57 °F

Light rain. Overcast.


Feels Like: 57 °F
Forecast: 51 / 76 °F
Wind: 3 mph from Southwest

Location: Bonn-Hangelar


UV Index: 3 (Moderate)

Visibility: 9 mi


Pressure: 30.01 "Hg

Humidity: 79%

Dew point: 50 °F

Location of KönigswinterLocation

Historic Weather in Königswinter

°F

Königswinter temperature yesterday

Maximum temperature yesterday: 67 °F (at 6:00 PM)
Minimum temperature yesterday: 48 °F (at 4:00 AM)
Average temperature yesterday: 57 °F

Past Weeks' High & Low Weather Summary

 TemperatureHumidityPressure
High67 °F (Apr 23, 6:00 PM)99% (Apr 12, 9:00 AM)30.44 "Hg (Apr 12, 9:00 AM)
Low32 °F (Apr 16, 6:00 AM)29% (Apr 17, 4:00 PM)29.62 "Hg (Apr 21, 2:00 PM)
Average50 °F72%30.05 "Hg
* Reported Apr 9 6:00 PM — Apr 24 6:00 PM, Königswinter, Weather by CustomWeather, © 2014

Note: Actual official high and low records may vary slightly from our data, if they occured in-between our weather recording intervals... More about our weather records

Advertising

Historic Weather Conditions — Data for Previous 24 hours

 ConditionsComfort  
Time TempWeatherWind HumidityBarometerVisibility
6:00 PM
Apr 24
61 °FThundershowers. Overcast.5 mph71%30.00 "Hg9 mi
5:00 PM67 °FThunderstorms. Overcast.3 mph56%29.99 "Hg12 mi
4:00 PM66 °FPartly sunny.3 mph55%30.01 "Hg12 mi
3:00 PM66 °FPassing clouds.2 mph51%30.04 "Hg12 mi
2:00 PM64 °FPassing clouds.2 mph57%30.06 "Hg12 mi
1:00 PM61 °FOvercast.2 mph66%30.09 "Hg19 mi
12:00 PM61 °FOvercast.5 mph67%30.10 "Hg19 mi
11:00 AM61 °FOvercast.7 mph62%30.10 "Hg25 mi
10:00 AM62 °FOvercast.5 mph67%30.10 "Hg25 mi
9:00 AM61 °FOvercast.2 mph63%30.09 "Hg31 mi
8:00 AM55 °FOvercast.5 mph74%30.10 "Hg31 mi
7:00 AM54 °FOvercast.1 mph72%30.09 "Hg31 mi
6:00 AM52 °FOvercast.3 mph80%30.09 "Hg31 mi
5:00 AM51 °FPassing clouds.2 mph75%30.10 "Hg31 mi
4:00 AM52 °FPassing clouds.3 mph81%30.10 "Hg31 mi
3:00 AM49 °FPassing clouds.3 mph87%30.11 "Hg31 mi
2:00 AM51 °FPassing clouds.5 mph87%30.11 "Hg31 mi
1:00 AM50 °FPassing clouds.3 mph91%30.12 "Hg31 mi
12:00 AM53 °FPassing clouds.2 mph84%30.11 "Hg31 mi
11:00 PM
Apr 23
55 °FPassing clouds.2 mph77%30.11 "Hg31 mi
10:00 PM57 °FPassing clouds.2 mph73%30.11 "Hg31 mi
9:00 PM61 °FPassing clouds.2 mph57%30.09 "Hg31 mi
8:00 PM63 °FScattered clouds.1 mph56%30.07 "Hg31 mi
7:00 PM65 °FScattered clouds.2 mph54%30.06 "Hg25 mi
Weather by CustomWeather, © 2014

See weather overview